This demonstration page uses our WeatherBlox Daily Observations layout. Learn more.

Left ArrowRight Arrow

Hourly Observations for September 25, 2021

Temp ( °F °C ) Dew Point ( °F °C ) Humidity (%) Winds ( mph kmh ) Pressure ( in mb ) Visibility ( mi km ) Precip ( " mm )
12:53 am 00:53 Clear 50 10 34 1.1 54 54 WSW 7 11 29.90 1012 10 16 N/A
1:53 am 01:53 Clear 50 10 34 1.1 54 54 N N/A 29.87 1012 10 16 N/A
2:53 am 02:53 Clear 48 8.9 33 0.6 56 56 SSW 5 7 29.87 1011 10 16 N/A
3:53 am 03:53 Clear 48 8.9 34 1.1 58 58 S 5 7 29.86 1011 10 16 N/A
4:53 am 04:53 Clear 44 6.7 33 0.6 65 65 S 3 6 29.85 1011 10 16 N/A
5:53 am 05:53 Clear 50 10 36 2.2 59 59 SW 8 13 29.84 1011 10 16 N/A
6:53 am 06:53 Clear 48 8.9 35 1.7 61 61 WSW 5 7 29.84 1011 10 16 N/A
7:53 am 07:53 Sunny 49 9.4 36 2.2 61 61 WSW 10 17 29.85 1011 10 16 N/A
8:53 am 08:53 Sunny 55 12.8 37 2.8 51 51 SW 15 24 29.84 1010 10 16 N/A
9:53 am 09:53 Sunny 66 18.9 38 3.3 36 36 SW 17 28 29.81 1009 10 16 N/A
10:53 am 10:53 Sunny 75 23.9 38 3.3 26 26 SW 17 28 29.79 1009 10 16 N/A
11:53 am 11:53 Sunny 77 25 37 2.8 24 24 SSW 22 35 29.75 1008 10 16 N/A
12:53 pm 12:53 Sunny 78 25.6 38 3.3 24 24 SW 20 31 29.75 1008 10 16 N/A
1:53 pm 13:53 Sunny 85 29.4 37 2.8 18 18 SW 16 26 29.71 1006 10 16 N/A
2:53 pm 14:53 Sunny 85 29.4 35 1.7 17 17 SW 15 24 29.68 1005 10 16 N/A
3:53 pm 15:53 Sunny 90 32.2 34 1.1 14 14 W 15 24 29.66 1004 10 16 N/A
4:53 pm 16:53 Sunny 88 31.1 35 1.7 15 15 WSW 16 26 29.65 1004 10 16 N/A
5:53 pm 17:53 Sunny 87 30.6 34 1.1 15 15 W 20 31 29.65 1004 10 16 N/A
6:53 pm 18:53 Sunny 80 26.7 34 1.1 19 19 WSW 12 19 29.67 1005 10 16 N/A
7:53 pm 19:53 Clear 71 21.7 34 1.1 26 26 SW 8 13 29.69 1006 10 16 N/A
8:53 pm 20:53 Clear 70 21.1 35 1.7 28 28 NW 6 9 29.70 1006 10 16 N/A
9:53 pm 21:53 Clear 62 16.7 34 1.1 35 35 WSW 7 11 29.71 1006 10 16 N/A
10:53 pm 22:53 Clear 60 15.6 34 1.1 38 38 W 6 9 29.71 1006 10 16 N/A
11:53 pm 23:53 Clear 56 13.3 35 1.7 46 46 WSW 9 15 29.73 1007 10 16 N/A

Powered by AerisWeather